Location: Oakhurst
(33.6448°N, 111.9543°W)
Time: 19:57:00
(UTC+00:00)

TIGRISAT - Visible Passes

Search period start: 23 July 2021 00:00
Search period end: 02 August 2021 00:00
Orbit: 604 x 689 km, 97.7° (Epoch: 23 July)

Date Brightness Start Highest point End Pass type
(mag) Time Alt. Az. Time Alt. Az. Time Alt. Az.
24 Jul ? 02:59:38 10° N 03:03:47 57° WNW 03:07:56 10° SSW visible
25 Jul ? 03:25:30 10° NNW 03:29:07 28° WNW 03:32:43 10° SW visible
26 Jul ? 03:52:04 10° NW 03:54:21 14° WNW 03:56:38 10° W visible
28 Jul ? 03:04:49 10° N 03:08:54 48° WNW 03:12:59 10° SSW visible
29 Jul ? 03:30:48 10° NNW 03:34:13 24° WNW 03:37:38 10° SW visible
30 Jul ? 03:57:39 10° NW 03:59:25 12° WNW 04:01:12 10° W visible
01 Aug ? 03:10:01 10° N 03:14:00 41° WNW 03:18:02 10° SW visible
